Orbital Elements
The following orbital elements are taken from MPC 56802:
Epoch 2009 Jan. 9.0 TT = JDT 2454840.5
T 2009 Jan. 20.9792 TT MPC
q 1.759028 (2000.0) P Q
n 0.0910145 Peri. 153.9791 +0.8606056 +0.5090288
a 4.894731 Node 175.3299 -0.4944541 +0.8425657
e 0.640628 Incl. 11.1441 -0.1219556 +0.1759906
P 10.8
From 182 observations 1965-1998, mean residual 1".0.
|